Terminal Aerodrome Forecast
Issued by NWS

Home | Current Version | Previous Version | Text Only | Print | Product List | Glossary On
Versions: 1 2 3 4 5 6 7 8 9 10 11 12 13 14 15 16 17 18
000
FTUS45 KPSR 012340
TAFIPL
TAF
KIPL 012340Z 0200/0224 16009KT P6SM FEW120 OVC150
     FM020300 VRB06KT P6SM BKN150 BKN250
      TEMPO 0203/0207 24006KT
     FM021000 15005KT P6SM FEW150 SCT250=

USA.gov is the U.S. government's official web portal to all federal, state and local government web resources and services.